Weather History for ENZV - November, 2012

Change the Weather History Date:

Monday, November 19, 2012

  Actual Average Record
Temperature  
Mean Temperature 44 °F -  
Max Temperature 48 °F 41 °F - ()
Min Temperature 39 °F 32 °F - ()
Degree Days  
Heating Degree Days 22    
Moisture  
Dew Point 39 °F    
Average Humidity 82    
Maximum Humidity 93    
Minimum Humidity 71    
Precipitation  
Precipitation 0.00 in 0.16 in - ()
Sea Level Pressure  
Sea Level Pressure 29.72 in    
Wind  
Wind Speed 14 mph ()    
Max Wind Speed 28 mph    
Max Gust Speed 44 mph    
Visibility 6.4 miles    
Events Rain    
T = Trace of Precipitation, MM = Missing Value Source: Averaged Metar Reports

Daily Weather History Graph

Daily Weather History Graph

Search for Another Location

Airport or City:

Trip Planner

Search our weather history database for the weather conditions in past years. The results will help you decide how hot, cold, wet, or windy it might be!

Date:

Astronomy

Nov. 19, 2012 Rise Set
Actual Time 8:38 AM CET 4:06 PM CET
Civil Twilight 7:50 AM CET 4:54 PM CET
Nautical Twilight 7:00 AM CET 5:45 PM CET
Astronomical Twilight 6:12 AM CET 6:32 PM CET
Moon 1:03 PM CET (11/19) 10:51 PM CET (11/19)
Length of Visible Light 9h 03m
Length of Day
7h 27m
Waxing Crescent, 38% of the Moon is Illuminated
Nov 19
Waxing Crescent
Nov 20
First Quarter
Nov 28
Full
Dec 6
Last Quarter
Dec 13
New

Hourly Weather History & Observations

Time (CET) Temp. Windchill Dew Point Humidity Pressure Visibility Wind Dir Wind Speed Gust Speed Precip Events Conditions
12:20 AM 44.6 °F 40.2 °F 35.6 °F 71% 29.83 in 6.2 mi SW 8.1 mph - N/A   Mostly Cloudy
12:50 AM 44.6 °F 38.8 °F 35.6 °F 71% 29.80 in 6.2 mi SSW 11.5 mph - N/A   Mostly Cloudy
1:50 AM 41.0 °F 37.1 °F 35.6 °F 81% 29.83 in 6.2 mi SSE 5.8 mph - N/A   Mostly Cloudy
2:50 AM 44.6 °F 39.2 °F 37.4 °F 76% 29.83 in 6.2 mi SSW 10.4 mph - N/A   Mostly Cloudy
3:50 AM 41.0 °F 35.8 °F 37.4 °F 87% 29.83 in 6.2 mi South 8.1 mph - N/A   Mostly Cloudy
4:50 AM 41.0 °F 35.8 °F 37.4 °F 87% 29.80 in 6.2 mi South 8.1 mph - N/A   Mostly Cloudy
5:50 AM 42.8 °F 37.5 °F 35.6 °F 76% 29.80 in 6.2 mi South 9.2 mph - N/A   Mostly Cloudy
6:20 AM 42.8 °F 37.5 °F 37.4 °F 81% 29.80 in 6.2 mi SSW 9.2 mph - N/A Rain Light Rain Showers
6:50 AM 42.8 °F 38.6 °F 37.4 °F 81% 29.80 in 6.2 mi SSE 6.9 mph - N/A   Scattered Clouds
7:00 AM 42 °F - 37 °F 78% 29.81 in 19 mi South 6.7 mph - - Rain Drizzle
7:20 AM 42.8 °F 38.0 °F 37.4 °F 81% 29.80 in 6.2 mi South 8.1 mph - N/A   Scattered Clouds
7:50 AM 42.8 °F 36.6 °F 37.4 °F 81% 29.80 in 6.2 mi South 11.5 mph - N/A   Mostly Cloudy
8:20 AM 42.8 °F 36.6 °F 37.4 °F 81% 29.80 in 6.2 mi SSE 11.5 mph - N/A   Mostly Cloudy
8:50 AM 42.8 °F 35.1 °F 39.2 °F 87% 29.80 in 5.6 mi SSW 16.1 mph - N/A Rain Light Rain Showers
9:20 AM 42.8 °F 34.5 °F 39.2 °F 87% 29.80 in 5.6 mi South 18.4 mph - N/A Rain Rain
9:50 AM 42.8 °F 36.6 °F 39.2 °F 87% 29.77 in 6.2 mi SSE 11.5 mph - N/A   Mostly Cloudy
10:20 AM 42.8 °F 35.4 °F 39.2 °F 87% 29.77 in 6.2 mi South 15.0 mph - N/A Rain Light Rain
10:50 AM 42.8 °F 35.1 °F 39.2 °F 87% 29.80 in 6.2 mi South 16.1 mph - N/A Rain Rain
11:20 AM 42.8 °F 35.4 °F 39.2 °F 87% 29.77 in 6.2 mi SSE 15.0 mph - N/A Rain Light Rain
11:50 AM 42.8 °F 35.8 °F 39.2 °F 87% 29.77 in 5.6 mi South 13.8 mph - N/A Rain Rain
12:20 PM 42.8 °F 34.8 °F 37.4 °F 81% 29.77 in 6.2 mi South 17.3 mph - N/A Rain Light Rain
12:50 PM 42.8 °F 35.1 °F 39.2 °F 87% 29.74 in 6.2 mi South 16.1 mph - N/A Rain Light Rain
1:00 PM 44 °F - 40 °F 79% 29.74 in 5 mi South 22.4 mph - - Rain Light Rain
1:20 PM 44.6 °F 36.6 °F 39.2 °F 81% 29.71 in 6.2 mi South 19.6 mph - N/A Rain Light Rain
1:50 PM 42.8 °F 34.0 °F 39.2 °F 87% 29.71 in 6.2 mi South 20.7 mph - N/A Rain Light Rain
2:20 PM 42.8 °F 34.5 °F 37.4 °F 81% 29.71 in 6.2 mi South 18.4 mph - N/A Rain Light Rain
2:50 PM 44.6 °F 37.2 °F 39.2 °F 81% 29.71 in 6.2 mi SSE 17.3 mph - N/A   Mostly Cloudy
3:20 PM 44.6 °F 36.9 °F 39.2 °F 81% 29.68 in 6.2 mi SSE 18.4 mph - N/A   Mostly Cloudy
3:50 PM 46.4 °F 38.7 °F 39.2 °F 76% 29.68 in 6.2 mi South 20.7 mph 32.2 mph N/A   Mostly Cloudy
4:20 PM 46.4 °F 38.5 °F 41.0 °F 81% 29.65 in 6.2 mi South 21.9 mph 33.4 mph N/A   Mostly Cloudy
4:50 PM 46.4 °F 38.1 °F 39.2 °F 76% 29.65 in 6.2 mi South 24.2 mph - N/A   Mostly Cloudy
5:20 PM 48.2 °F - 41.0 °F 76% 29.65 in 6.2 mi South 26.5 mph 38.0 mph N/A   Mostly Cloudy
5:50 PM 48.2 °F - 39.2 °F 71% 29.65 in 6.2 mi South 26.5 mph 40.3 mph N/A   Mostly Cloudy
6:20 PM 48.2 °F - 41.0 °F 76% 29.62 in 6.2 mi South 26.5 mph 38.0 mph N/A   Mostly Cloudy
6:50 PM 48.2 °F - 41.0 °F 76% 29.62 in 6.2 mi South 25.3 mph 38.0 mph N/A   Mostly Cloudy
7:00 PM 47 °F - 41 °F 72% 29.64 in 8 mi South 26.8 mph - -   Clear
7:20 PM 48.2 °F - 41.0 °F 76% 29.62 in 6.2 mi South 26.5 mph 40.3 mph N/A   Mostly Cloudy
7:50 PM 46.4 °F 37.5 °F 41.0 °F 81% 29.62 in 6.2 mi South 27.6 mph 43.7 mph N/A   Mostly Cloudy
8:20 PM 46.4 °F 37.9 °F 41.0 °F 81% 29.62 in 6.2 mi South 25.3 mph 42.6 mph N/A Rain Light Rain
8:50 PM 46.4 °F 37.7 °F 41.0 °F 81% 29.62 in 5.0 mi South 26.5 mph 41.4 mph N/A Rain Light Rain
9:20 PM 46.4 °F 38.1 °F 42.8 °F 87% 29.62 in 6.2 mi SSE 24.2 mph - N/A Rain Light Rain
9:50 PM 46.4 °F 38.1 °F 42.8 °F 87% 29.62 in 6.2 mi SSE 24.2 mph - N/A Rain Light Rain
10:20 PM 46.4 °F 38.1 °F 42.8 °F 87% 29.62 in 6.2 mi SSE 24.2 mph - N/A Rain Light Rain
10:50 PM 46.4 °F 38.3 °F 42.8 °F 87% 29.62 in 6.2 mi SSE 23.0 mph - N/A Rain Light Rain
11:20 PM 46.4 °F 38.3 °F 44.6 °F 93% 29.62 in 5.6 mi SSE 23.0 mph - N/A Rain Rain
11:50 PM 46.4 °F 38.5 °F 44.6 °F 93% 29.62 in 5.6 mi SSE 21.9 mph - N/A Rain Rain